2018-051A

Last updated on Thu Jun 28 2018 00:15:06 GMT+0000 (Coordinated Universal Time)

1 43493U 18051A 18178.55972098 .00001912 00000-0 36310-4 0 9998 2 43493 51.6405 327.0052 0003729 233.2002 165.8637 15.53975222120132
UTC large
Height (km)
Speed (km/s)
/
Latitude / Longitude
Inclination (degrees)
Orbital Period (minutes)
Azimuth
Elevation
Range (km)
Doppler Factor

Next 0 passes for location: London (51.5072 / 0.1276)

Sorry there are no passes over London.